Wind_Speed
7 6 6 6 7 7 7 8 9 8 8 8 8 9 10 10 10 10 12 12 12 12 11 11 10 10 9 9 8 7 7 8 8 8 7 7 6 5 4 3 3 3 4
7 7 7 6 7 8 8 9 9 9 9 9 9 10 11 11 11 11 12 12 11 12 12 11 11 10 9 9 8 7 7 7 6 7 6 6 5 4 3 3 3 3 3
7 6 7 7 8 8 8 8 9 9 10 10 10 11 11 12 12 12 12 12 12 12 11 11 11 11 10 8 7 7 7 6 6 6 5 4 4 4 3 3 2 3 4
7 6 6 7 7 8 8 8 8 9 10 9 10 11 11 11 11 13 12 12 12 12 12 11 10 10 9 8 7 7 6 7 6 5 4 3 3 3 2 2 2 2 3
7 6 6 7 7 8 8 8 9 9 9 9 10 11 11 12 12 13 12 13 11 11 11 10 9 8 7 7 7 6 6 6 5 5 4 3 2 2 2 1 2 3 3
7 7 7 7 7 8 8 8 8 9 9 9 10 11 11 12 12 12 13 12 11 11 10 9 8 8 7 7 7 7 6 6 5 4 3 2 2 2 2 2 2 3 3
7 7 7 7 7 7 8 8 8 9 10 10 10 10 10 10 11 11 12 11 10 10 10 9 7 7 6 6 7 6 6 5 4 3 3 2 2 2 2 2 2 2 3
7 6 6 7 7 8 9 9 9 9 9 9 10 10 10 9 10 10 10 10 9 9 9 8 7 6 6 5 5 5 4 4 3 2 2 2 2 2 2 3 3 2 3
7 6 7 7 8 8 9 9 9 9 9 9 10 10 10 9 10 10 10 9 9 9 8 8 7 7 6 5 4 4 3 3 3 3 2 2 2 2 3 3 3 3 3
7 7 7 8 8 9 9 9 8 8 9 8 9 9 9 9 10 10 10 9 9 8 8 7 7 7 6 5 4 3 2 3 3 2 2 2 2 2 3 3 3 3 4
8 8 8 8 8 8 9 9 8 8 8 8 8 9 9 8 9 9 9 9 8 8 7 6 6 6 5 4 4 3 3 3 3 2 2 1 1 1 2 3 3 3 4
9 9 8 8 8 8 8 8 8 8 8 7 7 8 8 7 7 7 8 8 7 7 7 6 6 5 4 4 3 3 3 3 2 2 1 1 2 2 3 3 3 4 5
9 9 8 8 7 8 8 8 7 7 7 7 6 6 6 6 7 7 7 7 6 6 6 6 6 5 4 4 4 3 3 3 3 2 2 2 3 4 4 4 4 5 6
9 8 9 8 8 8 7 7 7 7 6 6 6 5 5 5 5 6 6 6 5 5 6 7 6 6 5 4 4 4 3 3 3 4 4 4 4 4 5 5 5 6 6
8 8 8 8 8 7 7 7 6 6 6 6 5 5 4 5 4 5 5 6 5 4 5 6 6 6 5 5 4 4 4 4 4 4 5 5 5 5 5 5 6 6 6
8 8 7 7 7 7 6 6 6 6 5 5 5 4 3 3 4 4 4 4 4 4 3 5 6 6 6 5 5 5 5 5 5 5 5 6 5 5 5 5 5 6 6
8 8 8 8 8 7 7 7 6 6 6 5 4 3 3 3 4 3 4 4 4 4 3 4 6 6 6 5 5 6 6 5 5 5 5 5 6 6 6 6 6 7 7
8 8 7 7 7 7 7 7 6 6 5 5 4 3 3 3 3 3 3 4 4 4 4 5 6 6 6 6 6 6 6 6 5 5 5 6 6 6 7 7 7 7 7
8 7 7 6 6 6 6 6 5 5 5 4 4 3 2 2 2 3 4 4 5 5 5 6 6 6 7 7 7 7 7 6 6 5 6 6 7 7 7 7 8 8 8
7 7 6 6 5 5 5 5 4 4 4 4 3 2 1 1 2 3 3 4 5 5 6 6 7 7 8 8 8 8 7 7 7 7 7 7 7 8 8 9 9 9 10
6 6 5 5 4 4 4 4 3 3 2 2 2 2 2 0 1 2 2 4 4 5 6 7 8 8 9 9 9 9 9 8 8 8 8 8 9 9 10 10 10 10 11
4 5 4 3 3 3 3 3 3 2 1 1 1 2 2 2 1 2 3 4 5 6 7 7 8 9 9 9 9 8 8 9 9 9 9 10 10 11 11 11 11 12 11
3 3 3 2 2 2 2 2 3 2 3 2 2 3 3 3 2 3 3 4 6 7 8 8 8 9 9 9 9 9 9 9 9 10 10 11 11 11 12 12 12 12 12
2 2 2 2 2 3 3 3 3 3 2 2 3 4 4 3 3 4 4 5 5 6 7 8 8 9 9 10 11 11 11 11 11 11 11 12 12 12 13 13 14 13 13
3 2 2 2 3 3 3 3 3 3 3 4 4 5 4 4 4 4 5 5 6 7 8 8 9 10 10 11 11 11 12 12 12 13 13 13 14 14 14 15 14 14 14
4 4 4 4 4 4 4 4 4 4 5 5 5 5 5 5 5 5 6 6 7 7 8 9 9 10 10 10 11 12 12 12 13 13 13 14 14 14 14 14 14 14 15
Wind_Direction
101 96 95 103 106 108 106 112 115 118 125 131 135 139 139 139 144 145 144 141 142 141 138 141 144 142 137 135 140 147 154 157 158 161 164 165 168 166 168 171 172 183 178
96 95 94 96 106 105 107 115 117 115 120 125 127 137 138 139 142 144 144 146 142 138 136 139 143 139 138 132 130 138 151 157 162 162 161 162 166 168 172 187 192 189 186
91 94 96 96 100 103 106 112 118 116 121 121 123 132 139 140 140 137 136 141 140 139 137 138 138 127 126 127 127 135 146 150 154 155 155 158 165 175 185 200 212 211 200
91 97 99 102 104 105 109 117 120 121 124 125 127 131 137 141 143 141 140 138 138 139 140 136 131 130 126 121 118 121 131 141 144 145 152 153 149 167 191 198 224 213 209
95 98 101 104 106 106 110 114 125 125 127 131 133 133 136 141 144 145 142 140 140 141 141 135 133 133 130 124 124 128 131 137 138 143 145 145 139 151 176 204 224 227 230
92 93 98 100 108 111 113 116 121 126 129 133 134 132 132 137 144 148 143 141 140 139 137 135 136 138 135 133 137 138 134 137 143 148 146 154 174 202 214 225 227 239 235
90 91 95 99 108 114 116 117 119 125 129 130 131 130 133 138 141 141 141 144 142 139 141 141 142 142 140 137 139 141 138 144 154 158 163 189 214 230 225 218 234 242 237
93 92 95 102 109 114 113 113 117 124 128 130 132 131 134 143 144 140 138 139 140 143 147 149 151 152 149 143 143 144 143 150 159 167 180 193 212 229 230 246 243 242 241
95 94 97 103 109 112 112 112 114 116 122 127 128 131 135 139 138 138 141 140 142 147 151 152 155 155 155 154 157 152 159 169 169 176 189 211 231 244 248 254 250 242 244
95 97 100 105 110 114 114 113 115 114 116 122 122 130 137 140 141 143 145 143 146 149 151 151 155 157 157 158 164 161 161 172 180 186 194 207 233 257 262 258 250 247 250
92 97 98 104 109 115 118 116 114 114 117 122 125 131 134 138 141 144 150 154 156 157 157 158 156 160 162 163 162 159 169 179 184 186 191 196 232 273 285 269 253 258 263
88 96 100 102 106 111 118 120 116 115 118 122 124 132 137 139 144 149 155 156 158 161 168 168 167 168 168 167 168 174 182 188 200 212 219 243 274 286 293 295 269 264 266
86 93 98 98 99 103 112 117 117 117 120 122 123 126 142 147 145 152 157 159 160 166 175 182 181 187 189 187 186 194 197 205 218 232 243 265 278 283 289 291 285 277 269
86 92 97 99 98 101 105 109 112 118 118 123 125 125 135 146 143 151 156 156 164 172 178 186 191 198 196 193 197 206 214 227 237 241 250 265 276 284 288 289 290 286 281
85 89 96 101 101 101 102 108 115 121 124 130 136 131 138 148 152 160 160 166 170 177 184 190 194 196 190 199 208 215 227 235 239 246 254 264 271 279 286 294 297 294 289
81 82 90 100 101 101 103 106 113 119 122 127 132 132 137 152 158 166 178 179 185 182 177 190 195 200 206 213 221 226 235 244 251 254 264 265 271 280 288 294 302 301 292
81 85 89 96 103 103 104 102 106 113 115 117 124 132 148 158 165 180 191 199 201 202 200 201 200 212 214 222 235 240 239 248 260 265 268 269 271 278 286 292 297 299 297
83 88 85 93 100 100 98 99 100 111 114 112 117 128 147 166 175 192 205 204 209 216 219 221 221 228 234 239 247 247 248 252 263 269 274 273 275 281 287 292 296 298 299
78 81 80 86 92 96 93 90 94 104 107 106 104 108 136 163 189 202 206 209 218 223 225 222 229 244 249 247 252 252 253 260 262 269 271 273 276 283 291 293 292 295 296
67 69 70 77 83 85 89 88 90 100 103 96 93 88 115 153 180 201 212 214 217 222 230 237 244 249 253 256 261 260 260 263 265 273 275 273 276 283 291 294 292 293 295
57 58 60 67 70 72 71 73 80 90 93 73 63 56 27 150 199 211 220 222 235 235 239 249 251 254 257 260 265 265 265 264 269 273 273 275 280 285 291 296 295 293 294
47 48 52 62 62 59 52 53 56 51 48 25 342 349 350 334 300 264 256 253 260 258 257 260 261 260 263 265 267 267 262 263 267 270 274 279 284 286 289 292 294 293 293
30 33 38 45 35 23 20 24 22 15 8 10 354 341 332 327 320 288 279 266 266 264 266 265 267 265 265 266 267 266 265 268 270 272 278 285 289 291 290 289 293 294 292
348 356 5 9 1 352 347 354 1 5 4 358 345 334 325 316 310 294 289 282 276 270 269 272 268 265 270 270 269 269 267 268 271 275 280 284 287 288 290 289 289 292 292
315 322 326 327 336 342 340 346 338 337 341 337 332 332 319 312 312 303 300 293 289 284 282 280 279 276 278 278 277 276 273 272 275 278 282 285 287 289 290 291 290 292 293
288 293 302 305 311 317 319 323 324 316 320 328 324 323 316 312 310 304 299 298 294 292 290 288 284 282 283 282 281 281 280 280 280 281 282 285 285 287 289 293 294 293 293
Height
5873 5872 5871 5871 5870 5870 5870 5870 5870 5870 5870 5871 5871 5872 5873 5874 5875 5876 5877 5878 5880 5881 5882 5882 5883 5885 5886 5887 5888 5889 5890 5891 5892 5893 5894 5895 5896 5896 5897 5897 5898 5898 5899
5874 5873 5872 5872 5871 5871 5871 5870 5871 5871 5871 5872 5872 5872 5874 5875 5876 5877 5877 5878 5880 5881 5883 5885 5885 5886 5888 5888 5889 5890 5891 5892 5893 5894 5895 5896 5897 5897 5897 5898 5898 5898 5899
5875 5874 5873 5873 5873 5873 5872 5872 5872 5872 5873 5873 5873 5874 5874 5876 5877 5878 5878 5879 5881 5883 5884 5886 5887 5888 5889 5890 5890 5891 5891 5893 5894 5895 5896 5896 5897 5898 5898 5898 5898 5899 5899
5876 5875 5874 5874 5874 5874 5874 5873 5874 5874 5874 5875 5875 5875 5876 5877 5878 5879 5879 5881 5883 5884 5886 5887 5889 5890 5890 5891 5891 5892 5892 5894 5895 5896 5896 5897 5897 5898 5898 5899 5899 5899 5899
5877 5876 5876 5875 5876 5876 5875 5875 5875 5875 5876 5876 5877 5877 5877 5878 5879 5881 5881 5882 5884 5885 5887 5888 5889 5891 5891 5892 5893 5893 5894 5895 5896 5897 5897 5897 5898 5898 5899 5899 5899 5899 5899
5878 5878 5877 5877 5877 5877 5877 5877 5877 5877 5877 5878 5878 5879 5879 5880 5881 5882 5883 5884 5886 5887 5888 5889 5891 5892 5892 5893 5894 5895 5895 5896 5897 5897 5898 5898 5898 5898 5899 5899 5899 5899 5899
5879 5879 5879 5878 5878 5878 5878 5878 5879 5879 5878 5879 5880 5880 5881 5882 5882 5884 5885 5886 5887 5888 5889 5891 5892 5893 5893 5894 5895 5896 5897 5897 5898 5898 5898 5898 5899 5899 5899 5899 5899 5899 5899
5881 5880 5880 5880 5880 5880 5880 5880 5880 5880 5880 5881 5881 5882 5883 5883 5884 5885 5886 5887 5888 5889 5891 5892 5893 5893 5894 5895 5896 5896 5897 5898 5898 5898 5898 5899 5899 5899 5899 5899 5899 5899 5899
5882 5882 5881 5881 5881 5881 5881 5881 5882 5882 5882 5883 5883 5883 5884 5885 5886 5886 5888 5889 5889 5890 5892 5893 5894 5894 5895 5895 5896 5897 5898 5898 5898 5898 5898 5899 5899 5899 5899 5898 5898 5898 5898
5883 5883 5883 5882 5882 5883 5883 5883 5883 5884 5884 5884 5884 5885 5885 5886 5887 5888 5889 5890 5891 5892 5892 5893 5894 5895 5895 5896 5897 5897 5898 5898 5898 5898 5898 5899 5899 5899 5899 5898 5898 5898 5898
5885 5885 5884 5884 5884 5884 5884 5885 5885 5885 5885 5886 5886 5886 5886 5887 5888 5888 5889 5890 5891 5892 5893 5894 5895 5895 5896 5896 5897 5897 5898 5898 5898 5898 5898 5898 5899 5898 5898 5898 5898 5897 5897
5887 5886 5886 5886 5886 5886 5886 5886 5887 5887 5887 5887 5887 5887 5888 5888 5889 5889 5890 5891 5892 5892 5893 5894 5895 5895 5896 5896 5897 5897 5898 5898 5898 5898 5898 5898 5898 5898 5898 5897 5897 5896 5896
5888 5888 5888 5888 5887 5887 5887 5888 5888 5888 5888 5889 5889 5888 5889 5889 5889 5890 5890 5891 5892 5893 5893 5894 5895 5895 5896 5896 5897 5897 5898 5898 5898 5898 5898 5898 5898 5897 5897 5897 5896 5896 5895
5890 5890 5889 5889 5889 5889 5889 5889 5889 5889 5890 5890 5890 5890 5890 5890 5890 5891 5891 5892 5892 5893 5893 5894 5895 5895 5896 5896 5896 5897 5897 5898 5897 5897 5897 5897 5897 5897 5896 5896 5895 5894 5894
5892 5891 5890 5890 5890 5890 5890 5890 5890 5890 5890 5891 5891 5891 5891 5891 5891 5891 5892 5892 5893 5893 5894 5894 5895 5895 5895 5896 5896 5896 5897 5897 5897 5897 5896 5896 5896 5896 5895 5895 5894 5893 5892
5893 5893 5892 5892 5891 5891 5891 5891 5891 5891 5891 5891 5891 5891 5891 5891 5892 5892 5892 5893 5893 5893 5894 5894 5894 5895 5895 5895 5896 5896 5896 5896 5896 5896 5895 5895 5895 5894 5894 5893 5893 5892 5891
5895 5894 5894 5893 5893 5892 5892 5892 5892 5892 5892 5892 5892 5892 5892 5892 5892 5892 5893 5893 5894 5894 5894 5894 5895 5895 5895 5895 5895 5895 5895 5895 5895 5894 5894 5894 5894 5893 5893 5892 5891 5890 5889
5896 5896 5895 5894 5894 5894 5893 5893 5893 5893 5893 5893 5892 5892 5892 5892 5892 5892 5893 5893 5894 5894 5894 5894 5895 5895 5895 5895 5895 5894 5894 5894 5894 5893 5893 5893 5892 5892 5891 5891 5890 5889 5888
5898 5897 5897 5896 5895 5895 5895 5894 5894 5893 5893 5893 5893 5892 5892 5892 5892 5892 5892 5893 5893 5893 5893 5894 5894 5894 5894 5894 5893 5893 5893 5893 5893 5892 5892 5891 5891 5890 5890 5889 5888 5887 5886
5900 5899 5898 5898 5897 5896 5896 5895 5895 5895 5894 5894 5893 5893 5892 5892 5892 5892 5892 5892 5892 5893 5893 5893 5893 5892 5892 5892 5892 5892 5892 5892 5891 5891 5890 5890 5889 5889 5888 5887 5886 5886 5885
5901 5900 5900 5899 5898 5898 5897 5897 5896 5896 5895 5894 5894 5893 5893 5892 5892 5892 5892 5892 5892 5892 5892 5892 5892 5891 5891 5891 5890 5890 5890 5890 5890 5889 5889 5888 5887 5887 5886 5885 5884 5883 5882
5902 5901 5901 5900 5899 5898 5898 5897 5897 5896 5896 5895 5894 5893 5893 5892 5891 5891 5891 5891 5891 5891 5891 5890 5890 5890 5889 5889 5889 5888 5888 5888 5887 5887 5886 5886 5885 5885 5884 5883 5882 5881 5880
5903 5902 5901 5900 5900 5899 5898 5898 5897 5896 5896 5895 5894 5894 5893 5892 5891 5891 5891 5890 5890 5890 5890 5889 5889 5888 5888 5887 5887 5886 5886 5886 5885 5885 5884 5883 5883 5882 5881 5880 5879 5878 5877
5903 5902 5901 5901 5900 5899 5898 5897 5897 5896 5896 5895 5894 5893 5892 5892 5891 5890 5890 5890 5889 5889 5888 5887 5887 5886 5886 5885 5885 5884 5884 5883 5883 5882 5882 5881 5880 5879 5878 5877 5876 5875 5874
5903 5902 5902 5901 5900 5899 5898 5897 5896 5896 5895 5895 5894 5893 5892 5891 5890 5890 5889 5888 5888 5887 5886 5886 5885 5884 5883 5883 5882 5881 5881 5880 5880 5879 5878 5878 5877 5876 5875 5874 5872 5872 5871
5903 5902 5901 5901 5900 5899 5898 5897 5896 5895 5895 5894 5893 5892 5891 5890 5889 5889 5888 5887 5886 5885 5884 5883 5882 5881 5881 5880 5879 5879 5878 5878 5877 5876 5875 5874 5873 5872 5871 5870 5869 5868 5867